Location: Ciechanow
(52.8812°N, 20.6195°E)
Time: 06:20:00
(UTC+02:00)

ISS - Visible Passes

Search period start: 20 September 2018 00:00
Search period end: 30 September 2018 00:00
Orbit: 402 x 408 km, 51.6° (Epoch: 20 September)

Date Brightness Start Highest point End Pass type
(mag) Time Alt. Az. Time Alt. Az. Time Alt. Az.
22 Sep -1.3 20:28:14 10° SSW 20:28:34 12° S 20:28:34 12° S visible
23 Sep -1.8 19:37:18 10° S 19:38:54 13° SE 19:39:12 13° SE visible
23 Sep -1.0 21:11:38 10° SW 21:11:54 12° SW 21:11:54 12° SW visible
24 Sep -2.7 20:19:55 10° SW 20:22:20 29° S 20:22:20 29° S visible
25 Sep -2.4 19:28:24 10° SSW 19:31:02 22° SSE 19:32:36 16° ESE visible
25 Sep -1.8 21:03:52 10° WSW 21:05:17 23° WSW 21:05:17 23° WSW visible
26 Sep -3.5 20:11:58 10° WSW 20:15:09 47° SSE 20:15:26 45° SE visible
27 Sep -3.0 19:20:09 10° SW 19:23:11 35° SSE 19:25:29 15° E visible
27 Sep -2.3 20:56:10 10° W 20:58:09 33° WSW 20:58:09 33° WSW visible
28 Sep -3.8 20:04:09 10° WSW 20:07:25 63° S 20:08:07 47° ESE visible
28 Sep -0.6 21:40:33 10° W 21:40:47 12° W 21:40:47 12° W visible
29 Sep -3.5 19:12:11 10° WSW 19:15:24 52° SSE 19:18:02 14° E visible
29 Sep -2.6 20:48:28 10° W 20:50:42 39° WSW 20:50:42 39° WSW visible
